This demonstration page uses our WeatherBlox Daily Observations layout. Learn more.

Hourly Observations for March 23, 2016

Temp ( °F °C ) Dew Point ( °F °C ) Humidity (%) Winds ( mph kmh ) Pressure ( in mb ) Visibility ( mi km ) Precip ( " mm )
12:15 am 00:15 Partly Cloudy 52 11.2 36 2.3 55 55 ENE 23 37 29.38 995 10 16.0934 0 0
12:35 am 00:35 Clear 52 11.2 36 2.3 55 55 ENE 28 44 29.38 995 10 16.0934 0 0
12:55 am 00:55 Clear 51 10.7 36 2.3 56 56 ENE 25 41 29.38 995 10 16.0934 0 0
1:15 am 01:15 Clear 51 10.7 37 2.5 57 57 ENE 22 35 29.38 995 10 16.0934 0 0
1:35 am 01:35 Clear 51 10.3 36 2.4 58 58 ENE 20 31 29.38 995 10 16.0934 0 0
1:55 am 01:55 Clear 50 10.1 37 2.5 60 60 ENE 23 37 29.35 994 10 16.0934 0 0
2:15 am 02:15 Clear 50 10 37 2.6 60 60 NE 17 28 29.41 996 10 16.0934 0 0
2:35 am 02:35 Clear 49 9.3 37 2.5 63 63 NNE 13 20 29.41 996 10 16.0934 0 0
2:55 am 02:55 Clear 46 7.9 36 2.2 68 68 NNE 12 19 29.41 996 10 16.0934 0 0
3:15 am 03:15 Clear 45 7.4 36 2.2 70 70 NE 16 26 29.41 996 10 16.0934 0 0
3:35 am 03:35 Clear 46 7.8 37 2.5 69 69 NE 17 28 29.41 996 10 16.0934 0 0
3:55 am 03:55 Clear 46 8 37 2.5 69 69 NNE 17 28 29.38 995 10 16.0934 0 0
4:15 am 04:15 Clear 45 7 37 2.5 73 73 N 17 28 29.41 996 10 16.0934 0 0
4:35 am 04:35 Clear 44 6.5 37 2.7 77 77 N 17 28 29.44 997 10 16.0934 0 0
4:55 am 04:55 Clear 44 6.5 37 3 79 79 NNE 21 33 29.44 997 10 16.0934 0 0
5:15 am 05:15 Clear 44 6.5 38 3.1 79 79 NNE 24 39 29.44 997 10 16.0934 0 0
5:35 am 05:35 Clear 44 6.7 38 3.2 79 79 NNE 21 33 29.44 997 10 16.0934 0 0
5:55 am 05:55 Clear 44 6.5 38 3.1 79 79 NNE 20 31 29.44 997 10 16.0934 0 0
6:15 am 06:15 Clear 43 6 37 3 81 81 NNE 23 37 29.44 997 10 16.0934 0 0
6:35 am 06:35 Clear 42 5.8 37 3 82 82 NNE 23 37 29.44 997 10 16.0934 0 0
6:55 am 06:55 Clear 42 5.8 37 3 82 82 NNE 22 35 29.44 997 10 16.0934 0 0
7:15 am 07:15 Clear 42 5.5 37 2.7 82 82 NNE 28 44 29.44 997 10 16.0934 0 0
7:35 am 07:35 Mostly Cloudy 41 5.1 37 2.5 83 83 NNE 26 43 29.44 997 10 16.0934 0 0
7:55 am 07:55 Cloudy 41 4.9 36 2.1 82 82 NNE 28 44 29.44 997 10 16.0934 0 0
8:15 am 08:15 Cloudy 41 5 36 2 81 81 NNE 26 43 29.44 997 10 16.0934 0 0
8:35 am 08:35 Cloudy 41 5 36 2 81 81 NNE 30 48 29.44 997 10 16.0934 0 0
8:55 am 08:55 Cloudy 40 4.7 35 1.5 80 80 NNE 28 44 29.44 997 10 16.0934 0 0
9:15 am 09:15 Cloudy 40 4.5 34 1.3 80 80 NNE 28 44 29.44 997 10 16.0934 0 0
9:35 am 09:35 Cloudy 40 4.3 34 1.1 80 80 NNE 32 52 29.44 997 10 16.0934 0 0
9:55 am 09:55 Cloudy 40 4.3 34 1 79 79 NNE 30 48 29.44 997 10 16.0934 0 0
10:15 am 10:15 Cloudy 39 4 33 0.8 80 80 NNE 29 46 29.44 997 10 16.0934 0 0
10:35 am 10:35 Cloudy 39 4 33 0.7 79 79 NE 29 46 29.44 997 10 16.0934 0 0
10:55 am 10:55 Cloudy 39 3.8 33 0.7 80 80 NE 32 52 29.44 997 10 16.0934 0 0
11:15 am 11:15 Cloudy 39 3.7 33 0.6 80 80 NE 32 52 29.44 997 10 16.0934 0 0
11:35 am 11:35 Cloudy 38 3.6 33 0.7 82 82 NNE 31 50 29.47 998 10 16.0934 0 0
11:55 am 11:55 Cloudy 38 3.6 33 0.7 82 82 NE 35 56 29.47 998 10 16.0934 0 0
12:15 pm 12:15 Cloudy 38 3.3 33 0.7 83 83 NNE 36 57 29.47 998 7 11.26538 0 0
12:35 pm 12:35 Cloudy with Mist and Fog 37 3 33 0.7 85 85 NNE 29 46 29.5 999 5 8.0467 0 0
12:55 pm 12:55 Cloudy with Mist and Fog 37 3 34 1.1 87 87 NNE 33 54 29.5 999 4 6.43736 0 0
1:15 pm 13:15 Cloudy with Mist and Fog 37 2.7 34 1.2 90 90 NNE 33 54 29.5 999 4 6.43736 0 0
1:35 pm 13:35 Cloudy with Mist and Fog 37 2.6 34 1.2 91 91 NE 36 57 29.53 1000 4 6.43736 0 0
1:55 pm 13:55 Cloudy with Mist and Fog 37 2.5 34 1.1 91 91 NE 32 52 29.53 1000 5 8.0467 0 0
2:15 pm 14:15 Cloudy with Thunderstorms 36 2.2 34 1 92 92 NNE 29 46 29.53 1000 3 4.82802 0 0
2:35 pm 14:35 Cloudy with Light Rain 36 2.1 34 1 93 93 NE 35 56 29.53 1000 3 4.82802 0 0
2:55 pm 14:55 Cloudy with Mist and Fog 36 2.1 34 1 93 93 NE 38 61 29.53 1000 4 6.43736 0 0
3:15 pm 15:15 Cloudy with Mist and Fog 36 2 34 1 93 93 NNE 30 48 29.53 1000 4 6.43736 0 0
3:35 pm 15:35 Cloudy with Mist and Fog 36 2.1 34 1.1 93 93 NNE 32 52 29.53 1000 3 4.82802 0 0
3:55 pm 15:55 Cloudy with Nearby Thunderstorms 36 2.2 34 1.1 93 93 NNE 31 50 29.56 1001 4 6.43736 0 0
4:15 pm 16:15 Cloudy 37 2.5 34 1.2 91 91 NNE 35 56 29.56 1001 7 11.26538 0 0
4:35 pm 16:35 Cloudy with Mist and Fog 37 2.5 34 1.1 91 91 NNE 33 54 29.56 1001 5 8.0467 0 0
4:55 pm 16:55 Cloudy with Nearby Thunderstorms 36 2.3 33 0.7 89 89 NNE 37 59 29.59 1002 5 8.0467 0 0
5:15 pm 17:15 Cloudy with Mist and Fog 35 1.7 33 0.4 91 91 N 36 57 29.59 1002 3 4.82802 0 0
5:35 pm 17:35 Cloudy with Nearby Thunderstorms 35 1.6 32 0.1 90 90 N 32 52 29.65 1004 7 11.26538 0 0
5:55 pm 17:55 Very Windy with Snow Likely 34 1.2 32 -0.1 91 91 N 40 65 29.68 1005 5 8.0467 0 0
6:15 pm 18:15 Windy with Snow Likely 34 1.1 32 -0.1 92 92 N 33 54 29.68 1005 7 11.26538 0 0
6:35 pm 18:35 Windy with Snow Likely 33 0.8 31 -0.5 91 91 N 33 54 29.71 1006 4 6.43736 0 0
6:55 pm 18:55 Cloudy with Nearby Thunderstorms 33 0.5 30 -0.9 90 90 N 37 59 29.74 1007 4 6.43736 0 0
7:15 pm 19:15 Windy with Snow Likely 33 0.3 30 -1.1 90 90 N 30 48 29.74 1007 3 4.82802 0 0
7:35 pm 19:35 Windy with Snow Likely 32 0 29 -1.5 90 90 N 31 50 29.74 1007 2.5 4.02335 0 0
7:55 pm 19:55 Cloudy with Snow 31 -0.5 29 -1.5 93 93 N 33 54 29.8 1009 0.75 1.207005 0 0
8:15 pm 20:15 Cloudy 31 -0.7 29 -1.6 94 94 N 35 56 29.8 1009 N/A 0 0
8:35 pm 20:35 undefined 31 -0.7 29 -1.5 94 94 N 35 56 29.8 1009 N/A 0 0
8:55 pm 20:55 undefined 31 -0.8 29 -1.7 94 94 N 32 52 29.83 1010 N/A 0 0
9:15 pm 21:15 undefined 31 -0.7 29 -1.6 94 94 N 31 50 29.85 1011 N/A 0 0
9:35 pm 21:35 undefined 31 -0.5 29 -1.5 93 93 N 31 50 29.85 1011 N/A 0 0
9:55 pm 21:55 Cloudy 31 -0.5 29 -1.5 93 93 N 24 39 29.88 1012 N/A 0 0
10:15 pm 22:15 undefined 31 -0.5 29 -1.5 93 93 N 23 37 29.88 1012 N/A 0 0
10:35 pm 22:35 Cloudy 31 -0.5 29 -1.5 93 93 N 25 41 29.88 1012 N/A 0 0
10:55 pm 22:55 Cloudy 31 -0.5 29 -1.5 93 93 N 30 48 29.88 1012 N/A 0.01 0.254
11:15 pm 23:15 Cloudy 31 -0.5 29 -1.4 94 94 N 26 43 29.88 1012 N/A 0 0
11:35 pm 23:35 Cloudy 31 -0.6 29 -1.5 94 94 N 25 41 29.88 1012 N/A 0.01 0.254
11:55 pm 23:55 Cloudy 31 -0.6 29 -1.5 94 94 N 28 44 29.88 1012 N/A 0.03 0.762

Powered by AerisWeather